Starlink 3207

operational
NORAD ID: 49756 Int'l Des: 2021-115 Owner: SPXS Country: US Constellation: starlink
LEOCIRCULAR

About Starlink 3207

Description loading...

Live Position

Loading 3D Globe...

Upcoming Passes

Altitude History

Altitude vs Time

uPlot chart will show altitude changes over time

Two-Line Element Set

1 49756U 21115AJ 25348.89979757 -.00000495 00000-0 -13033-4 0 9998
2 49756 53.2160 159.7547 0001371 90.9900 269.1249 15.08833974222879
Epoch: Dec 14, 2025 • Age: 12 hours

Current Status

Altitude 555.5 km
Velocity 7.58 km/s
Sub-Earth Point -44.17°S, 123.86°W
Launch Date Dec 2, 2021
Age 4 years
Type internet

Technical Details

Classification Payload
Mass 290.00 kg
Dry Mass 270.00 kg
Total Mass 290.00 kg
Length 0.20 m
Diameter 2.80 m
Span 9.00 m
Shape Box + pan
Manufacturer SPXS
Bus Type Starlink
Phase Status In Orbit
Owner/State SPXS/US

Large Constellations

Loading constellations...